EW5495 Weather Reports


time (UTC)temp
C
wind
direction
speed
KPH
gust
KPH
rain 1hr
cm
rain 24hr
cm
rain mn
cm
humidity
%
barometer
mb
20260510033406 24 175 4.8 20.9 0.00 0.00 0.00 60 1026.2
20260510032407 25 171 6.4 12.9 0.00 0.00 0.00 61 1026.2
20260510031404 24 133 9.7 14.5 0.00 0.00 0.00 60 1026.2
20260510030356 24 94 6.4 22.5 0.00 0.00 0.00 60 1026.5
20260510025355 25 151 4.8 9.7 0.00 0.00 0.00 61 1026.5
20260510024354 24 175 6.4 24.1 0.00 0.00 0.00 61 1026.5
20260510023351 23 119 14.5 24.1 0.00 0.00 0.00 62 1026.5
20260510022350 23 171 3.2 19.3 0.00 0.00 0.00 63 1026.5
20260510021353 23 168 6.4 20.9 0.00 0.00 0.00 63 1026.7
20260510020343 24 116 6.4 16.1 0.00 0.00 0.00 62 1026.9
20260510015337 23 132 8.0 12.9 0.00 0.00 0.00 62 1027.0
20260510012336 22 227 4.8 8.0 0.00 0.00 0.00 65 1028.0
20260510011336 22 260 3.2 9.7 0.00 0.00 0.00 66 1028.0
20260510005334 21 279 4.8 12.9 0.00 0.00 0.00 66 1028.3
20260510004334 21 253 4.8 12.9 0.00 0.00 0.00 68 1028.3
20260510003334 21 241 8.0 14.5 0.00 0.00 0.00 68 1028.4
20260510002335 20 279 3.2 16.1 0.00 0.00 0.00 69 1028.6
20260510001334 20 267 4.8 14.5 0.00 0.00 0.00 70 1028.7
20260510000334 20 291 4.8 14.5 0.00 0.00 0.00 70 1029.0
20260509235333 20 251 8.0 14.5 0.00 0.00 0.00 70 1028.9
20260509234334 19 241 9.7 14.5 0.00 0.00 0.00 71 1028.8
20260509233335 18 236 3.2 12.9 0.00 0.00 0.00 72 1028.8
20260509232333 18 229 6.4 12.9 0.00 0.00 0.00 73 1028.8
20260509231337 18 245 3.2 9.7 0.00 0.00 0.00 74 1028.6
20260509230334 18 246 4.8 12.9 0.00 0.00 0.00 73 1028.6
20260509225334 17 245 4.8 9.7 0.00 0.00 0.00 74 1028.3
20260509224332 17 236 4.8 9.7 0.00 0.00 0.00 76 1028.2
20260509223331 16 239 3.2 9.7 0.00 0.00 0.00 78 1028.3
20260509222334 16 245 1.6 8.0 0.00 0.00 0.00 80 1028.3
20260509221333 15 251 1.6 12.9 0.00 0.00 0.00 81 1028.0
20260509220332 15 273 4.8 14.5 0.00 0.00 0.00 84 1027.9
20260509215331 14 246 4.8 8.0 0.00 0.00 0.00 87 1027.7
20260509214330 13 246 4.8 8.0 0.00 0.00 0.00 88 1027.5
20260509213330 13 253 4.8 9.7 0.00 0.00 0.00 89 1027.6
20260509212331 12 173 1.6 9.7 0.00 0.00 0.00 89 1027.5
20260509210332 12 249 3.2 8.0 0.00 0.00 0.00 90 1027.3
20260509205331 12 251 4.8 12.9 0.00 0.00 0.00 90 1026.9
20260509204329 12 252 4.8 8.0 0.00 0.00 0.00 89 1026.8
20260509202329 12 255 3.2 6.4 0.00 0.00 0.00 89 1026.6
20260509201334 12 256 1.6 8.0 0.00 0.00 0.00 89 1026.5
20260509200328 12 252 3.2 8.0 0.00 0.00 0.00 89 1026.5
20260509194328 12 242 3.2 8.0 0.00 0.00 0.00 89 1026.5
20260509192328 12 238 1.6 9.7 0.00 0.00 0.00 89 1026.2
20260509191328 12 241 1.6 3.2 0.00 0.00 0.00 89 1026.1
20260509185327 12 241 6.4 12.9 0.00 0.00 0.00 89 1025.9
20260509184328 12 225 3.2 8.0 0.00 0.00 0.00 90 1025.8
20260509183324 12 224 4.8 8.0 0.00 0.00 0.00 90 1025.7
20260509182325 12 218 3.2 9.7 0.00 0.00 0.00 90 1025.9
20260509181324 12 215 6.4 8.0 0.00 0.00 0.00 90 1025.7
20260509180323 12 196 4.8 6.4 0.00 0.00 0.00 90 1026.0
20260509175326 12 194 3.2 6.4 0.00 0.00 0.00 90 1025.7
20260509174325 12 194 3.2 3.2 0.00 0.00 0.00 90 1025.6
20260509173325 12 194 1.6 6.4 0.00 0.00 0.00 90 1025.6
20260509172323 12 194 3.2 8.0 0.00 0.00 0.00 90 1025.5
20260509170323 12 193 1.6 6.4 0.00 0.00 0.00 90 1025.7
20260509165324 12 193 3.2 3.2 0.00 0.00 0.00 90 1025.6
20260509163324 12 193 1.6 3.2 0.00 0.00 0.00 89 1025.7
20260509162323 12 193 1.6 3.2 0.00 0.00 0.00 89 1025.6
20260509160323 12 193 3.2 6.4 0.00 0.00 0.00 89 1025.8
20260509155322 12 188 3.2 6.4 0.00 0.00 0.00 89 1025.7
20260509153320 12 188 3.2 3.2 0.00 0.00 0.00 89 1025.8
20260509152320 12 188 1.6 3.2 0.00 0.00 0.00 90 1025.8
20260509151320 12 188 3.2 6.4 0.00 0.00 0.00 90 1025.9
20260509150319 12 188 0.0 3.2 0.00 0.00 0.00 90 1026.1
20260509145319 12 188 0.0 3.2 0.00 0.00 0.00 90 1025.9
20260509144319 12 188 0.0 3.2 0.00 0.00 0.00 90 1025.9
20260509143319 12 188 3.2 6.4 0.00 0.00 0.00 89 1025.9
20260509140318 12 188 0.0 1.6 0.00 0.00 0.00 89 1026.2
20260509135318 13 188 1.6 1.6 0.00 0.00 0.00 89 1025.9
20260509134318 13 188 1.6 3.2 0.00 0.00 0.00 89 1025.9
20260509133319 13 188 1.6 3.2 0.00 0.00 0.00 89 1025.9
20260509132318 13 188 1.6 6.4 0.00 0.00 0.00 89 1026.0
20260509131319 13 187 1.6 3.2 0.00 0.00 0.00 89 1026.1
20260509130317 13 187 0.0 1.6 0.00 0.00 0.00 88 1026.3
20260509125318 13 187 0.0 3.2 0.00 0.00 0.00 88 1026.0
20260509124318 13 187 3.2 3.2 0.00 0.00 0.00 87 1025.9
20260509122317 13 188 0.0 1.6 0.00 0.00 0.00 86 1026.1
20260509121317 14 187 0.0 3.2 0.00 0.00 0.00 86 1026.0
20260509120316 14 187 3.2 6.4 0.00 0.00 0.00 86 1026.2
20260509115318 14 187 1.6 6.4 0.00 0.00 0.00 87 1026.2
20260509114316 14 171 1.6 3.2 0.00 0.00 0.00 87 1026.2
20260509113315 14 165 0.0 0.0 0.00 0.00 0.00 87 1026.2
20260509112316 14 165 0.0 0.0 0.00 0.00 0.00 86 1026.1
20260509111315 15 165 0.0 0.0 0.00 0.00 0.00 86 1026.2
20260509110327 15 165 0.0 0.0 0.00 0.00 0.00 85 1026.2
20260509105314 15 165 0.0 0.0 0.00 0.00 0.00 85 1026.1
20260509104313 15 165 0.0 0.0 0.00 0.00 0.00 85 1026.0
20260509103314 15 165 0.0 0.0 0.00 0.00 0.00 84 1025.9
20260509102316 15 165 0.0 0.0 0.00 0.00 0.00 82 1025.8
20260509101314 16 165 0.0 0.0 0.00 0.00 0.00 81 1025.8
20260509095313 16 165 0.0 1.6 0.00 0.00 0.00 79 1025.9
20260509094313 16 165 1.6 1.6 0.00 0.00 0.00 77 1025.7
20260509093312 16 165 0.0 1.6 0.00 0.00 0.00 74 1025.5
20260509092314 17 165 0.0 0.0 0.00 0.00 0.00 72 1025.5
20260509091314 17 165 0.0 0.0 0.00 0.00 0.00 70 1025.3
20260509090312 17 165 0.0 1.6 0.00 0.00 0.00 69 1025.3
20260509085313 18 165 0.0 0.0 0.00 0.00 0.00 68 1025.1
20260509084311 18 165 0.0 1.6 0.00 0.00 0.00 68 1024.9
20260509083311 18 165 1.6 1.6 0.00 0.00 0.00 67 1024.9
20260509082312 18 165 0.0 1.6 0.00 0.00 0.00 66 1024.7
20260509081310 18 165 1.6 3.2 0.00 0.00 0.00 65 1024.5
20260509080309 19 165 0.0 1.6 0.00 0.00 0.00 63 1024.6
20260509075310 19 165 0.0 1.6 0.00 0.00 0.00 61 1024.4
20260509074310 20 165 0.0 1.6 0.00 0.00 0.00 59 1024.3
20260509073310 20 165 0.0 1.6 0.00 0.00 0.00 56 1024.2
20260509071311 21 89 1.6 3.2 0.00 0.00 0.00 53 1024.2
20260509070308 21 99 1.6 9.7 0.00 0.00 0.00 51 1024.1
20260509063307 22 134 4.8 19.3 0.00 0.00 0.00 50 1023.4
20260509061311 23 177 4.8 9.7 0.00 0.00 0.00 50 1023.3
20260509060308 23 68 4.8 9.7 0.00 0.00 0.00 49 1023.3
20260509055307 23 105 9.7 19.3 0.00 0.00 0.00 48 1023.1
20260509053308 23 103 1.6 12.9 0.00 0.00 0.00 47 1023.1
20260509052307 23 108 3.2 9.7 0.00 0.00 0.00 47 1022.9
20260509051306 23 160 1.6 6.4 0.00 0.00 0.00 48 1023.1
20260509050318 23 156 4.8 14.5 0.00 0.00 0.00 47 1023.2
20260509045307 23 156 11.3 22.5 0.00 0.00 0.00 47 1022.9
20260509044304 24 150 8.0 9.7 0.00 0.00 0.00 47 1023.0
20260509043306 23 156 1.6 8.0 0.00 0.00 0.00 49 1023.0
20260509042307 23 157 1.6 8.0 0.00 0.00 0.00 51 1023.2
20260509040305 23 150 6.4 9.7 0.00 0.00 0.00 51 1023.2
20260509034307 23 210 3.2 9.7 0.00 0.00 0.00 50 1023.2